CZ-3B DEB, 42472

Orbit data source: Space-Track

CZ-3B DEB, 42472 is space debris in HEO originally from a launch on Mon, 19 Dec 2011 UTC launched from the Xichang Space Center, China (XSC). Debris objects in space refer to the collection of defunct objects orbiting the Earth. Examples of debris include non-operational satellites, rocket bodies, and fragments generated from explosions, collisions, or faulty payload assembly.

Loading next visibility...
Identifier
42472, 2011-077AM
Orbit
HEO
Country
Flag of CNCN / PRC
Related business
Manufacturer
CALT
Mission
Spacecraft
Bus & Motor
Unknown
Mass
Unknown
Launch date (UTC)
2011-12-19 (14 years ago)
Launch vehicle
Unknown
Launch site
Xichang Space Center, China (XSC)
Object type
Payload
Rocket body
Debris
Shape & HBR
Unknown
Radar Cross Section
Medium (>0.1 m² and <1 m²)

Expand to show TLE details & history
Last TLE update: 21 hours ago

TLE from 21 hours ago
0 CZ-3B DEB
1 42472U 11077AM  25260.19960614 -.00000306  00000-0  00000-0 0  9996
2 42472  25.9936   5.1559 7192562 160.5770 255.7854  1.79353550 70133
Epoch: 2025-09-17T04:47Z
TLE epoch observation values (Epoch: 2025-09-17T04:47:25.97Z)
Latitude
0.00002°
Longitude
-63.08662°
Altitude
36,551.959 km
Speed
2.154 km/s
True Right ascension
00h 20m 36s
True Declination
0° 00' 00"
Sunlit
Object was in daylight at epoch
Visualization orbit readout
Latitude
Unknown
Longitude
Unknown
Altitude
Unknown
Speed
Unknown
Apparent Right ascension
Unknown
Apparent Declination
Unknown
Sunlit
N/A
Visualization observer readout
Local Sidereal Time
18:44:54
Azimuth
Unknown
Elevation
Unknown
Doppler factor
Unknown
Orbital elements
Apogee altitude
42,824.19 km
Perigee altitude
1,656.296 km
Semi-major axis
28,618.38 km
Eccentricity
0.71926
Inclination
25.9936°
RAAN
5.1559°
Arg. of periapsis
160.577°
True anomaly
199.50993°
Mean anomaly
255.7854°
Eccentric anomaly
226.09416°
Mean motion
0.44831 °/min
Orbital period
803.02 mins
BSTAR
0
Loading maneuver chart data...
Computing Atmospheric mass density...
Loading historical data...
Loading historical data...
Loading historical data...
Loading historical data...
Loading historical data...
Loading historical data...
Loading historical data...

Documentation

Showing up to 5 results
|